Hourly Data Report for October 17, 2015

All times are specified in Local Standard Time (LST). Add 1 hour to adjust for Daylight Saving Time where and when it is observed.

CAPE DORSET A
NUNAVUT

64°13'49.000" N
76°31'30.000" W
48.20 m
2400637
71366
YTE

Download Data

Hourly Data (October 2015)
Hourly Data Report for October 17, 2015
Temp Definition
°C
Dew Point Temp Definition
°C
Rel Hum Definition
%
Wind Dir Definition
10's deg

Wind Spd Definition
km/h
Visibility Definition
km
Stn Press Definition
kPa
Hmdx Definition


Wind Chill Definition


Weather Definition


TIME
00:00 Legend Double Dagger -7.3 -10.3 79 30 11 16.1 100.27   -12 LegendNANA
01:00 Legend Double Dagger -7.5 -10.9 77 29 8 16.1 100.27   -12 LegendNANA
02:00 Legend Double Dagger -7.6 -10.3 81 30 15 16.1 100.28   -14 Snow
03:00 Legend Double Dagger -7.3 -10.2 80 31 13 16.1 100.28   -13 Snow
04:00 Legend Double Dagger -7.3 -9.8 82 31 17 16.1 100.27   -14 Snow
05:00 Legend Double Dagger -7.4 -10.8 77 29 11 16.1 100.30   -12 Snow
06:00 Legend Double Dagger -7.6 -11.3 75 30 8 16.1 100.31   -12 LegendNANA
07:00 Legend Double Dagger -7.6 -10.5 80 26 9 16.1 100.33   -12 Snow
08:00 Legend Double Dagger -6.9 -10.0 79 28 13 16.1 100.31   -12 LegendNANA
09:00 Legend Double Dagger -7.0 -9.6 82 25 11 16.1 100.31   -12 LegendNANA
10:00 Legend Double Dagger -6.3 -8.7 83 28 17 16.1 100.29   -13 LegendNANA
11:00 Legend Double Dagger -5.7 -8.3 82 28 21 16.1 100.29   -13 LegendNANA
12:00 Legend Double Dagger -5.7 -8.3 82 27 17 16.1 100.31   -12 LegendNANA
13:00 Legend Double Dagger -5.7 -7.8 85 28 18 16.1 100.35   -12 LegendNANA
14:00 Legend Double Dagger -5.3 -7.6 84 29 9 16.1 100.37   -9 Snow
15:00 Legend Double Dagger -4.8 -6.9 85 28 18 16.1 100.39   -11 LegendNANA
16:00 Legend Double Dagger -5.0 -6.9 87 28 18 16.1 100.42   -11 LegendNANA
17:00 Legend Double Dagger -4.8 -7.2 84 29 21 16.1 100.44   -11 LegendNANA
18:00 Legend Double Dagger -4.9 -7.0 85 28 21 16.1 100.47   -12 LegendNANA
19:00 Legend Double Dagger -4.8 -7.2 83 28 18 16.1 100.49   -11 LegendNANA
20:00 Legend Double Dagger -5.3 -7.1 87 28 13 16.1 100.49   -10 LegendNANA
21:00 Legend Double Dagger -5.9 -7.6 88 28 11 16.1 100.46   -11 LegendNANA
22:00 Legend Double Dagger -5.9 -6.9 93 27 9 16.1 100.44   -10 LegendNANA
23:00 Legend Double Dagger -6.4 -7.5 92 30 13 16.1 100.44   -12 LegendNANA

Notes on Data Quality.

Legend

  • E = Estimated
  • M = Missing
  • NA = Not Available
  • ‡ = Partner data that is not subject to review by the National Climate Archives
Date modified: